Weather History for Chipley, FL

Change the Weather History Date:

Sunday, June 16, 2013

  Actual Average (KMAI) Record (KMAI)
Temperature  
Mean Temperature 88 °F 80 °F  
Max Temperature 93 °F 91 °F 98 °F (1998)
Min Temperature 82 °F 70 °F 61 °F (2002)
Degree Days  
Heating Degree Days 0    
Month to date heating degree days  
Since 1 June heating degree days  
Since 1 July heating degree days  
Cooling Degree Days 22    
Month to date cooling degree days  
Year to date cooling degree days  
Since 1 June cooling degree days  
Growing Degree Days 38 (Base 50)    
Moisture  
Dew Point 73 °F    
Average Humidity 66    
Maximum Humidity 79    
Minimum Humidity 49    
Precipitation  
Precipitation 0.00 in 0.19 in 0.81 in (1999)
Month to date precipitation 2.86  
Year to date precipitation 25.08  
Sea Level Pressure  
Sea Level Pressure 30.02 in    
Wind  
Wind Speed 5 mph (SSW)    
Max Wind Speed 10 mph    
Max Gust Speed 16 mph    
Visibility 10 miles    
Events      
T = Trace of Precipitation, MM = Missing Value Source: NWS Daily Summary

Daily Weather History Graph

Daily Weather History Graph

Search for Another Location

Airport:

Trip Planner

Search our weather history database for the weather conditions in past years. The results will help you decide how hot, cold, wet, or windy it might be!

Date:

Astronomy

Jun. 16, 2013 Rise Set
Actual Time 5:39 AM CDT 7:47 PM CDT
Civil Twilight 5:11 AM CDT 8:15 PM CDT
Nautical Twilight 4:37 AM CDT 8:48 PM CDT
Astronomical Twilight 4:01 AM CDT 9:25 PM CDT
Moon 12:46 PM CDT (6/16) 12:17 AM CDT (6/16)
Length of Visible Light 15h 03m
Length of Day
14h 08m
Waxing Crescent, 50% of the Moon is Illuminated
Jun 16
Waxing Crescent
Jun 16
First Quarter
Jun 23
Full
Jun 29
Last Quarter
Jul 8
New

Hourly Weather History & Observations

Time (CDT) Temp. Heat Index Dew Point Humidity Pressure Visibility Wind Dir Wind Speed Gust Speed Precip Events Conditions
12:15 AM 82.4 °F 88.2 °F 73.4 °F 74% 30.02 in 10.0 mi SSE 6.9 mph - N/A   Clear
12:35 AM 84.2 °F 90.9 °F 73.4 °F 70% 30.02 in 10.0 mi SSE 4.6 mph - N/A   Clear
12:55 AM 82.4 °F 88.2 °F 73.4 °F 74% 30.01 in 10.0 mi SE 3.5 mph - N/A   Clear
1:15 AM 82.4 °F 88.2 °F 73.4 °F 74% 30.00 in 10.0 mi SSE 5.8 mph - N/A   Clear
1:35 AM 82.4 °F 88.2 °F 73.4 °F 74% 30.00 in 10.0 mi South 4.6 mph - N/A   Clear
1:55 AM 82.4 °F 88.2 °F 73.4 °F 74% 30.00 in 10.0 mi SSE 4.6 mph - N/A   Scattered Clouds
2:15 AM 82.4 °F 88.2 °F 73.4 °F 74% 30.00 in 10.0 mi South 4.6 mph - N/A   Scattered Clouds
2:35 AM 84.2 °F 90.9 °F 73.4 °F 70% 29.99 in 10.0 mi South 4.6 mph - N/A   Clear
2:55 AM 82.4 °F 89.5 °F 75.2 °F 79% 29.99 in 10.0 mi Calm Calm - N/A   Clear
3:15 AM 82.4 °F 89.5 °F 75.2 °F 79% 29.98 in 10.0 mi Calm Calm - N/A   Scattered Clouds
3:35 AM 82.4 °F 89.5 °F 75.2 °F 79% 29.98 in 10.0 mi SSW 3.5 mph - N/A   Mostly Cloudy
3:55 AM 82.4 °F 88.2 °F 73.4 °F 74% 29.99 in 10.0 mi South 5.8 mph - N/A   Mostly Cloudy
4:15 AM 82.4 °F 88.2 °F 73.4 °F 74% 29.99 in 10.0 mi South 5.8 mph - N/A   Partly Cloudy
4:35 AM 82.4 °F 88.2 °F 73.4 °F 74% 29.99 in 10.0 mi SE 4.6 mph - N/A   Mostly Cloudy
4:55 AM 82.4 °F 88.2 °F 73.4 °F 74% 30.00 in 10.0 mi South 4.6 mph - N/A   Overcast
5:15 AM 82.4 °F 88.2 °F 73.4 °F 74% 30.00 in 10.0 mi South 4.6 mph - N/A   Mostly Cloudy
5:35 AM 82.4 °F 88.2 °F 73.4 °F 74% 30.00 in 10.0 mi South 4.6 mph - N/A   Overcast
5:55 AM 82.4 °F 88.2 °F 73.4 °F 74% 30.01 in 10.0 mi South 4.6 mph - N/A   Overcast
6:15 AM 82.4 °F 88.2 °F 73.4 °F 74% 30.02 in 10.0 mi South 4.6 mph - N/A   Overcast
6:35 AM 82.4 °F 88.2 °F 73.4 °F 74% 30.02 in 10.0 mi SSW 4.6 mph - N/A   Mostly Cloudy
6:55 AM 82.4 °F 89.5 °F 75.2 °F 79% 30.03 in 10.0 mi SW 3.5 mph - N/A   Mostly Cloudy
7:15 AM 82.4 °F 88.2 °F 73.4 °F 74% 30.04 in 9.0 mi SW 4.6 mph - N/A   Mostly Cloudy
7:35 AM 82.4 °F 88.2 °F 73.4 °F 74% 30.04 in 8.0 mi WSW 4.6 mph - N/A   Overcast
7:55 AM 84.2 °F 90.9 °F 73.4 °F 70% 30.05 in 9.0 mi Calm Calm - N/A   Overcast
8:15 AM 84.2 °F 90.9 °F 73.4 °F 70% 30.05 in 7.0 mi SW 3.5 mph - N/A   Scattered Clouds
8:35 AM 86.0 °F 95.1 °F 75.2 °F 70% 30.06 in 8.0 mi West 4.6 mph - N/A   Clear
8:55 AM 87.8 °F 97.6 °F 75.2 °F 66% 30.06 in 9.0 mi WNW 8.1 mph - N/A   Scattered Clouds
9:15 AM 87.8 °F 95.6 °F 73.4 °F 62% 30.06 in 10.0 mi West 5.8 mph - N/A   Mostly Cloudy
9:35 AM 87.8 °F 95.6 °F 73.4 °F 62% 30.06 in 10.0 mi WSW 5.8 mph - N/A   Overcast
9:55 AM 87.8 °F 95.6 °F 73.4 °F 62% 30.06 in 10.0 mi WSW 5.8 mph - N/A   Overcast
10:15 AM 87.8 °F 95.6 °F 73.4 °F 62% 30.06 in 10.0 mi West 4.6 mph - N/A   Overcast
10:35 AM 87.8 °F 95.6 °F 73.4 °F 62% 30.06 in 10.0 mi West 4.6 mph - N/A   Overcast
10:55 AM 87.8 °F 95.6 °F 73.4 °F 62% 30.06 in 10.0 mi WSW 4.6 mph - N/A   Mostly Cloudy
11:15 AM 91.4 °F 100.1 °F 73.4 °F 55% 30.05 in 10.0 mi SW 5.8 mph - N/A   Scattered Clouds
11:35 AM 89.6 °F 96.2 °F 71.6 °F 55% 30.05 in 10.0 mi SW 8.1 mph - N/A   Scattered Clouds
11:55 AM 89.6 °F 99.8 °F 75.2 °F 62% 30.04 in 10.0 mi North 6.9 mph - N/A   Scattered Clouds
12:15 PM 87.8 °F 97.6 °F 75.2 °F 66% 30.05 in 10.0 mi North 5.8 mph - N/A   Mostly Cloudy
12:35 PM 86.0 °F 95.1 °F 75.2 °F 70% 30.04 in 9.0 mi North 9.2 mph - N/A   Overcast
12:55 PM 86.0 °F 95.1 °F 75.2 °F 70% 30.04 in 10.0 mi NW 5.8 mph - N/A   Overcast
1:15 PM 87.8 °F 95.6 °F 73.4 °F 62% 30.04 in 10.0 mi South 5.8 mph - N/A   Mostly Cloudy
1:35 PM 87.8 °F 95.6 °F 73.4 °F 62% 30.04 in 10.0 mi Calm Calm - N/A   Overcast
1:55 PM 87.8 °F 95.6 °F 73.4 °F 62% 30.03 in 10.0 mi SSW 5.8 mph - N/A   Overcast
2:15 PM 87.8 °F 95.6 °F 73.4 °F 62% 30.03 in 10.0 mi NW 5.8 mph - N/A   Overcast
2:35 PM 86.0 °F 95.1 °F 75.2 °F 70% 30.02 in 10.0 mi Calm Calm - N/A   Overcast
2:55 PM 89.6 °F 99.8 °F 75.2 °F 62% 30.01 in 10.0 mi Calm Calm - N/A   Mostly Cloudy
3:15 PM 89.6 °F 98.2 °F 73.4 °F 59% 30.01 in 10.0 mi West 3.5 mph - N/A   Partly Cloudy
3:35 PM 93.2 °F 102.4 °F 73.4 °F 52% 30.01 in 10.0 mi SW 3.5 mph - N/A   Clear
3:55 PM 89.6 °F 98.2 °F 73.4 °F 59% 30.00 in 10.0 mi SSW 5.8 mph - N/A   Clear
4:15 PM 91.4 °F 98.4 °F 71.6 °F 52% 30.00 in 10.0 mi Calm Calm - N/A   Partly Cloudy
4:35 PM 93.2 °F 102.4 °F 73.4 °F 52% 30.00 in 10.0 mi SW 5.8 mph - N/A   Partly Cloudy
4:55 PM 93.2 °F 100.5 °F 71.6 °F 49% 29.99 in 10.0 mi SSW 4.6 mph - N/A   Mostly Cloudy
5:15 PM 93.2 °F 100.5 °F 71.6 °F 49% 29.99 in 10.0 mi SSW 6.9 mph - N/A   Scattered Clouds
5:35 PM 89.6 °F 98.2 °F 73.4 °F 59% 29.99 in 10.0 mi South 9.2 mph - N/A   Mostly Cloudy
5:55 PM 89.6 °F 98.2 °F 73.4 °F 59% 30.00 in 10.0 mi SW 10.4 mph 16.1 mph N/A   Partly Cloudy
6:15 PM 86.0 °F 93.4 °F 73.4 °F 66% 30.00 in 10.0 mi SSW 9.2 mph - N/A   Mostly Cloudy
6:35 PM 86.0 °F 93.4 °F 73.4 °F 66% 30.00 in 10.0 mi SSW 5.8 mph - N/A   Scattered Clouds
6:55 PM 87.8 °F 93.8 °F 71.6 °F 58% 30.00 in 10.0 mi SSW 6.9 mph - N/A   Clear
7:15 PM 87.8 °F 95.6 °F 73.4 °F 62% 30.01 in 10.0 mi South 6.9 mph - N/A   Clear
7:35 PM 87.8 °F 95.6 °F 73.4 °F 62% 30.00 in 10.0 mi South 5.8 mph - N/A   Scattered Clouds
7:55 PM 87.8 °F 93.8 °F 71.6 °F 58% 30.00 in 10.0 mi South 4.6 mph - N/A   Partly Cloudy
8:15 PM 87.8 °F 93.8 °F 71.6 °F 58% 29.99 in 10.0 mi South 5.8 mph - N/A   Clear
8:35 PM 87.8 °F 95.6 °F 73.4 °F 62% 29.99 in 10.0 mi South 5.8 mph - N/A   Clear
8:55 PM 86.0 °F 93.4 °F 73.4 °F 66% 30.00 in 10.0 mi South 4.6 mph - N/A   Unknown
9:15 PM 86.0 °F 93.4 °F 73.4 °F 66% 30.00 in 10.0 mi South 5.8 mph - N/A   Mostly Cloudy
9:35 PM 86.0 °F 93.4 °F 73.4 °F 66% 30.00 in 10.0 mi South 6.9 mph - N/A   Partly Cloudy
9:55 PM 86.0 °F 93.4 °F 73.4 °F 66% 30.01 in 10.0 mi South 6.9 mph - N/A   Clear
10:15 PM 86.0 °F 93.4 °F 73.4 °F 66% 30.01 in 10.0 mi South 5.8 mph - N/A   Clear
10:35 PM 84.2 °F 90.9 °F 73.4 °F 70% 30.01 in 10.0 mi SSW 5.8 mph - N/A   Clear
10:55 PM 84.2 °F 90.9 °F 73.4 °F 70% 30.02 in 10.0 mi South 5.8 mph - N/A   Clear
11:15 PM 84.2 °F 89.6 °F 71.6 °F 66% 30.02 in 10.0 mi SSW 8.1 mph - N/A   Clear
11:35 PM 84.2 °F 89.6 °F 71.6 °F 66% 30.02 in 10.0 mi SSW 5.8 mph - N/A   Clear
11:55 PM 84.2 °F 89.6 °F 71.6 °F 66% 30.01 in 10.0 mi SSW 5.8 mph - N/A   Clear